sat.trackr.live / text

‹ back to catalog

STARLINK-4436

NORAD 53479 · 2022-099Q

PAYLOAD ACTIVE UNKNOWN

§ Identity

Operator
Country
US
Launch date
2022-08-12
Launch site
AFWTR
Launch vehicle
Mass (kg)
RCS (m²)

Purposes: comms

External: N2YO · Heavens-Above · Gunter

§ Orbital elements

Epoch: 2026-09-19T14:02:36.088224Z

Period
93.91 min
Inclination
97.2856°
Eccentricity
0.0001372
Mean motion
15.33448323 rev/d
Perigee alt
464.6 km
Apogee alt
466.5 km
Semi-major
6,843.7 km
B*
2.0126e-5
RAAN
20.2036°
Arg perigee
103.6675°
Mean anomaly
256.4720°
Rev number
22,540

§ Raw data

STARLINK-44361 53479U 22099Q   26262.58513991  .00000575  00000+0  20126-4 0  99902 53479  97.2856  20.2036 0001372 103.6675 256.4720 15.33448323225406

JSON: /api/v1/satellites/53479 · /tle

For live sub-satellite position, see the globe view (requires WebGL).

§ Visibility from observer

Set your observer location to see the next 7 days of passes ≥ 10°. The values pass through the URL so the page stays shareable.

No JS? Fill the form by hand. The geolocation button needs JavaScript.